Time,TemperatureF,DewpointF,PressureIn,WindDirection,WindDirectionDegrees,WindSpeedMPH,WindSpeedGustMPH,Humidity,HourlyPrecipIn,Conditions,Clouds,dailyrainin,SoftwareType,DateUTC
2013-10-31 17:20:00,66.2,21.4,29.85,NNW,336,4.0,7.0,18,0.00,,,0.00,Wunderground v.1.15,2013-11-01 00:20:00,
2013-10-31 17:25:00,65.6,20.9,29.85,NW,311,4.0,7.0,18,0.00,,,0.00,Wunderground v.1.15,2013-11-01 00:25:00,
2013-10-31 17:30:00,65.3,21.9,29.85,NW,326,5.0,5.0,19,0.00,,,0.00,Wunderground v.1.15,2013-11-01 00:30:00,
2013-10-31 17:35:00,65.0,22.9,29.85,NW,326,5.0,5.0,20,0.00,,,0.00,Wunderground v.1.15,2013-11-01 00:35:00,
2013-10-31 17:40:00,64.8,22.7,29.85,NW,326,6.0,6.0,20,0.00,,,0.00,Wunderground v.1.15,2013-11-01 00:40:00,
2013-10-31 17:45:00,64.6,23.7,29.85,West,276,6.0,6.0,21,0.00,,,0.00,Wunderground v.1.15,2013-11-01 00:45:00,
2013-10-31 17:55:00,64.1,24.4,29.86,WNW,301,7.0,7.0,22,0.00,,,0.00,Wunderground v.1.15,2013-11-01 00:55:00,
2013-10-31 18:00:00,64.0,24.4,29.86,WNW,300,7.0,7.0,22,0.00,,,0.00,Wunderground v.1.15,2013-11-01 01:00:00,
2013-10-31 18:05:00,63.8,25.3,29.86,NW,308,7.0,11.0,23,0.00,,,0.00,Wunderground v.1.15,2013-11-01 01:05:00,
2013-10-31 18:10:00,63.6,25.1,29.86,NNW,332,7.0,11.0,23,0.00,,,0.00,Wunderground v.1.15,2013-11-01 01:10:00,
2013-10-31 18:15:00,63.4,24.9,29.86,WNW,300,8.0,11.0,23,0.00,,,0.00,Wunderground v.1.15,2013-11-01 01:15:00,
2013-10-31 18:25:00,63.1,24.7,29.86,NW,311,9.0,10.0,23,0.00,,,0.00,Wunderground v.1.15,2013-11-01 01:25:00,
2013-10-31 18:30:00,62.9,24.5,29.86,NW,312,9.0,10.0,23,0.00,,,0.00,Wunderground v.1.15,2013-11-01 01:30:00,
2013-10-31 18:35:00,62.8,24.4,29.86,NW,319,10.0,11.0,23,0.00,,,0.00,Wunderground v.1.15,2013-11-01 01:35:00,
2013-10-31 18:40:00,62.6,24.2,29.87,NW,316,10.0,10.0,23,0.00,,,0.00,Wunderground v.1.15,2013-11-01 01:40:00,
2013-10-31 18:50:00,62.3,22.9,29.87,NNW,328,10.0,10.0,22,0.00,,,0.00,Wunderground v.1.15,2013-11-01 01:50:00,
2013-10-31 18:55:00,62.2,22.8,29.87,NNW,335,9.0,10.0,22,0.00,,,0.00,Wunderground v.1.15,2013-11-01 01:55:00,
2013-10-31 19:00:00,61.9,23.6,29.87,North,353,5.0,5.0,23,0.00,,,0.00,Wunderground v.1.15,2013-11-01 02:00:00,
2013-10-31 19:05:00,61.7,23.5,29.87,North,360,2.0,5.0,23,0.00,,,0.00,Wunderground v.1.15,2013-11-01 02:05:00,
2013-10-31 19:10:00,61.1,24.0,29.87,ENE,65,2.0,3.0,24,0.00,,,0.00,Wunderground v.1.15,2013-11-01 02:10:00,
2013-10-31 19:15:00,60.7,23.7,29.87,NNE,30,2.0,3.0,24,0.00,,,0.00,Wunderground v.1.15,2013-11-01 02:15:00,
2013-10-31 19:20:00,60.5,23.5,29.88,NNW,340,1.0,2.0,24,0.00,,,0.00,Wunderground v.1.15,2013-11-01 02:20:00,
2013-10-31 19:30:00,60.5,23.5,29.88,WNW,300,1.0,1.0,24,0.00,,,0.00,Wunderground v.1.15,2013-11-01 02:30:00,
2013-10-31 19:40:00,60.0,24.0,29.88,WNW,300,1.0,2.0,25,0.00,,,0.00,Wunderground v.1.15,2013-11-01 02:40:00,
2013-10-31 19:45:00,59.9,23.9,29.88,WNW,300,1.0,2.0,25,0.00,,,0.00,Wunderground v.1.15,2013-11-01 02:45:00,
2013-10-31 19:50:00,60.1,24.1,29.88,WNW,282,1.0,1.0,25,0.00,,,0.00,Wunderground v.1.15,2013-11-01 02:50:00,
2013-10-31 19:55:00,60.2,23.2,29.88,WNW,283,1.0,1.0,24,0.00,,,0.00,Wunderground v.1.15,2013-11-01 02:55:00,
2013-10-31 20:00:00,60.3,24.3,29.88,West,270,0.0,0.0,25,0.00,,,0.00,Wunderground v.1.15,2013-11-01 03:00:00,
2013-10-31 20:10:00,60.4,23.4,29.88,West,274,1.0,1.0,24,0.00,,,0.00,Wunderground v.1.15,2013-11-01 03:10:00,
2013-10-31 20:15:00,60.5,23.5,29.88,West,275,1.0,2.0,24,0.00,,,0.00,Wunderground v.1.15,2013-11-01 03:15:00,
2013-10-31 20:20:00,60.0,23.1,29.88,WNW,297,2.0,3.0,24,0.00,,,0.00,Wunderground v.1.15,2013-11-01 03:20:00,
2013-10-31 20:30:00,58.9,23.1,29.89,NW,304,4.0,4.0,25,0.00,,,0.00,Wunderground v.1.15,2013-11-01 03:30:00,
2013-10-31 20:40:00,58.9,23.1,29.89,WNW,300,5.0,5.0,25,0.00,,,0.00,Wunderground v.1.15,2013-11-01 03:40:00,
2013-10-31 20:50:00,58.8,23.0,29.89,NW,308,4.0,4.0,25,0.00,,,0.00,Wunderground v.1.15,2013-11-01 03:50:00,
2013-10-31 20:55:00,58.9,23.1,29.89,NW,307,3.0,4.0,25,0.00,,,0.00,Wunderground v.1.15,2013-11-01 03:55:00,
2013-10-31 21:05:00,59.6,23.7,29.89,WNW,296,3.0,3.0,25,0.00,,,0.00,Wunderground v.1.15,2013-11-01 04:05:00,
2013-10-31 21:10:00,59.3,23.4,29.89,NW,304,3.0,4.0,25,0.00,,,0.00,Wunderground v.1.15,2013-11-01 04:10:00,
2013-10-31 21:15:00,58.1,23.3,29.90,NW,325,4.0,4.0,26,0.00,,,0.00,Wunderground v.1.15,2013-11-01 04:15:00,
2013-10-31 21:20:00,57.9,23.2,29.90,WNW,293,3.0,3.0,26,0.00,,,0.00,Wunderground v.1.15,2013-11-01 04:20:00,
2013-10-31 21:25:00,57.5,22.8,29.90,WNW,293,1.0,3.0,26,0.00,,,0.00,Wunderground v.1.15,2013-11-01 04:25:00,
2013-10-31 21:30:00,57.3,23.6,29.90,NNW,332,0.0,3.0,27,0.00,,,0.00,Wunderground v.1.15,2013-11-01 04:30:00,
2013-10-31 21:35:00,56.9,23.2,29.90,North,6,2.0,3.0,27,0.00,,,0.00,Wunderground v.1.15,2013-11-01 04:35:00,
2013-10-31 21:40:00,57.1,23.4,29.90,North,8,2.0,2.0,27,0.00,,,0.00,Wunderground v.1.15,2013-11-01 04:40:00,
2013-10-31 21:50:00,56.9,23.2,29.90,North,1,0.0,0.0,27,0.00,,,0.00,Wunderground v.1.15,2013-11-01 04:50:00,
2013-10-31 21:55:00,57.0,23.3,29.91,WNW,292,0.0,5.0,27,0.00,,,0.00,Wunderground v.1.15,2013-11-01 04:55:00,
2013-10-31 22:00:00,56.9,23.2,29.91,NW,309,2.0,3.0,27,0.00,,,0.00,Wunderground v.1.15,2013-11-01 05:00:00,
2013-10-31 22:05:00,56.9,23.2,29.91,WNW,301,3.0,3.0,27,0.00,,,0.00,Wunderground v.1.15,2013-11-01 05:05:00,
2013-10-31 22:10:00,57.4,23.7,29.91,NW,304,3.0,3.0,27,0.00,,,0.00,Wunderground v.1.15,2013-11-01 05:10:00,
2013-10-31 22:20:00,57.7,23.9,29.91,WNW,300,1.0,1.0,27,0.00,,,0.00,Wunderground v.1.15,2013-11-01 05:20:00,
2013-10-31 22:25:00,57.5,23.7,29.91,WNW,301,1.0,1.0,27,0.00,,,0.00,Wunderground v.1.15,2013-11-01 05:25:00,
2013-10-31 22:30:00,57.2,23.5,29.91,WNW,301,1.0,1.0,27,0.00,,,0.00,Wunderground v.1.15,2013-11-01 05:30:00,
2013-10-31 22:40:00,56.6,23.8,29.92,WNW,301,0.0,0.0,28,0.00,,,0.00,Wunderground v.1.15,2013-11-01 05:40:00,
2013-10-31 22:45:00,56.6,23.8,29.92,WNW,301,0.0,0.0,28,0.00,,,0.00,Wunderground v.1.15,2013-11-01 05:45:00,
2013-10-31 22:50:00,56.3,23.6,29.92,WNW,301,0.0,0.0,28,0.00,,,0.00,Wunderground v.1.15,2013-11-01 05:50:00,
2013-10-31 22:55:00,56.2,23.5,29.92,NW,307,0.0,1.0,28,0.00,,,0.00,Wunderground v.1.15,2013-11-01 05:55:00,
2013-10-31 23:00:00,56.5,23.7,29.92,NW,309,1.0,2.0,28,0.00,,,0.00,Wunderground v.1.15,2013-11-01 06:00:00,
2013-10-31 23:10:00,55.7,23.9,29.92,NNW,330,3.0,4.0,29,0.00,,,0.00,Wunderground v.1.15,2013-11-01 06:10:00,
2013-10-31 23:15:00,55.6,23.8,29.92,NW,318,4.0,4.0,29,0.00,,,0.00,Wunderground v.1.15,2013-11-01 06:15:00,
2013-10-31 23:20:00,55.9,23.2,29.92,NW,326,3.0,3.0,28,0.00,,,0.00,Wunderground v.1.15,2013-11-01 06:20:00,
2013-10-31 23:30:00,55.9,24.1,29.93,NW,326,0.0,0.0,29,0.00,,,0.00,Wunderground v.1.15,2013-11-01 06:30:00,
2013-10-31 23:40:00,56.4,24.5,29.93,NW,316,1.0,1.0,29,0.00,,,0.00,Wunderground v.1.15,2013-11-01 06:40:00,
2013-10-31 23:45:00,56.1,24.2,29.92,NW,316,1.0,1.0,29,0.00,,,0.00,Wunderground v.1.15,2013-11-01 06:45:00,
2013-10-31 23:50:00,55.5,24.5,29.92,NW,311,1.0,1.0,30,0.00,,,0.00,Wunderground v.1.15,2013-11-01 06:50:00,
2013-10-31 23:55:00,54.9,24.0,29.92,NW,318,1.0,1.0,30,0.00,,,0.00,Wunderground v.1.15,2013-11-01 06:55:00,